Powrót do katalogu

STARLINK-35951

AktywnyŁącznośćVLEO
NORAD 66619·PAYLOAD·🇺🇸 United States

Wystrzelony Nov 23, 2025 z Vandenberg Space Force Base

Loading…

Następne Przeloty (najbliższe 24 godziny)

TLE

ŚwieżeSource: CelesTrak SupGP

Epoka: Sep 15, 2026, 03:39 UTC

1 66619C 25271C   26258.15256944  .00063261  00000+0  18684-2 0  2588
2 66619  53.1588 338.4448 0001267  84.9164 318.9739 15.34370473    10

Śledź STARLINK-35951 w czasie rzeczywistym z AllMySat

Download on the App Store